SCP
0 0 0 0 0 0 0 0 0 1 1 1 0 0 0 1 1 1 1 1 0 0 0 1 0 0 0 0 0 0 0 0 0 0 0 0 0 0 0 0 0 0 0
0 0 0 0 0 0 0 0 0 1 1 0 0 0 0 0 0 1 1 1 0 0 0 0 0 0 0 0 0 0 0 0 0 0 0 0 0 0 0 0 0 0 0
0 0 0 0 0 0 0 0 0 0 0 0 1 1 1 1 0 1 1 1 0 0 0 0 0 0 0 0 0 0 0 0 0 0 0 0 0 0 0 0 0 0 0
0 0 0 0 0 0 0 0 0 0 0 0 0 0 0 0 0 1 0 1 0 0 0 0 0 0 0 0 0 0 -0 0 0 0 0 0 0 0 0 0 0 0 0
0 0 0 0 0 0 0 0 0 0 0 0 0 0 0 0 0 0 0 0 0 0 0 0 0 0 -0 -0 -0 0 -0 0 0 0 0 0 0 0 0 0 0 0 0
0 0 0 0 0 0 0 0 0 0 0 0 0 0 1 0 0 0 0 0 0 0 0 0 -0 -0 0 0 0 -0 -0 0 0 0 0 0 0 0 0 0 0 0 0
0 0 0 0 0 0 0 0 0 0 0 0 0 0 0 0 0 0 0 0 0 0 -0 -0 -0 -0 0 0 0 -0 0 0 0 0 0 0 0 0 0 0 0 0 0
0 0 0 0 0 -0 -0 -0 0 0 0 0 0 0 0 0 0 0 0 0 0 -0 -0 -0 -0 0 -0 -0 0 0 0 0 0 0 0 0 0 0 0 0 0 0 0
0 0 0 0 -0 -0 -0 -0 -0 -0 0 0 0 0 0 0 0 0 0 0 0 -0 -0 0 0 0 -0 -0 0 0 0 0 -0 0 0 0 -0 0 0 0 0 0 0
-0 0 0 -0 -0 -0 -0 -0 -0 -0 -0 -0 0 0 0 0 0 0 0 -0 -0 -0 0 0 0 0 0 0 0 0 0 -0 0 -0 0 0 0 0 0 0 0 0 0
-0 0 -0 -0 -0 -0 -0 -0 -0 -0 -0 0 0 0 0 0 0 0 -0 -0 -0 -0 0 0 0 0 0 0 0 0 0 -0 -0 -0 0 0 0 0 0 0 0 0 0
-0 -0 -0 -0 -0 -0 -0 -0 -0 -0 -0 0 0 0 0 0 0 0 -0 0 0 -0 0 0 0 0 0 0 0 0 0 -0 -0 -0 -0 -0 0 0 0 0 0 0 0
-0 -0 -0 -0 -0 -0 -0 -0 -0 -0 -0 -0 -0 -0 0 0 0 -0 -0 -0 -0 0 0 0 0 0 0 0 -0 0 -0 0 -0 0 0 0 -0 0 0 0 0 0 0
-0 -0 -0 -0 -0 -0 -0 -0 -0 -0 -0 -0 -0 -0 0 0 0 -0 0 -0 0 0 0 0 0 0 0 0 0 0 0 -0 -0 0 0 0 0 0 0 0 0 0 -0
-0 -0 -0 -0 -0 -0 -0 -0 -0 -0 -0 -0 -0 -0 0 0 -0 -0 0 0 0 0 -0 0 0 0 0 0 0 0 -0 -0 -0 0 0 0 0 0 0 0 0 -0 -0
-0 -0 -0 -0 -0 -0 -0 -0 -0 -0 -0 -0 -0 0 -0 -0 -0 -0 -0 0 0 -0 -0 -0 0 0 0 0 0 0 0 -0 -0 0 -0 0 -0 0 0 0 -0 0 -0
-0 -0 -0 -0 -0 -0 -0 -0 -0 -0 -0 -0 -0 0 -0 -0 -0 -0 -0 -0 0 0 0 -0 -0 0 0 0 0 0 0 0 -0 0 0 0 0 -0 0 -0 -0 0 -0
-0 -0 -0 -0 -0 -0 -0 -0 -0 -0 -0 -0 -0 0 -0 0 -0 0 0 0 0 0 -0 0 0 0 0 0 0 0 0 0 0 0 0 0 0 0 0 0 -0 0 0
0 -0 -0 -0 -0 -0 -0 -0 -0 -0 -0 -0 -0 -0 0 0 0 0 0 0 -0 -0 -0 0 0 0 0 0 -0 0 0 0 0 0 0 -0 -0 -0 0 0 -0 0 0
-0 -0 -0 -0 -0 -0 -0 -0 -0 -0 -0 -0 -0 -0 -0 0 0 0 0 0 0 0 0 -0 -0 -0 0 0 0 0 0 0 0 -0 -0 -0 0 0 0 -0 -0 0 -0
-0 -0 -0 -0 -0 -0 -0 -0 -0 -0 -0 -0 -0 -0 -0 0 0 0 0 0 0 0 0 0 0 0 0 0 0 0 0 0 0 0 0 0 0 0 0 0 -0 -0 -0
0 0 -0 -0 -0 -0 -0 -0 -0 -0 -0 -0 -0 -0 -0 -0 0 0 0 0 0 0 0 0 0 0 0 0 0 0 0 0 0 0 0 0 0 0 0 0 0 -0 -0
0 -0 -0 -0 -0 -0 -0 -0 -0 -0 -0 -0 -0 -0 -0 -0 -0 -0 0 0 0 0 0 0 0 0 0 0 0 -0 0 0 0 0 0 -0 0 0 0 0 -0 0 -0
0 -0 -0 -0 -0 -0 -0 -0 -0 -0 -0 -0 -0 -0 -0 -0 -0 -0 0 0 0 0 0 0 0 0 0 0 0 0 0 0 0 -0 0 -0 0 0 0 0 0 -0 0
0 0 -0 -0 -0 -0 -0 -0 -0 -0 -0 -0 -0 -0 -0 -0 -0 0 0 0 0 0 0 0 0 0 0 0 0 0 0 0 -0 -0 -0 -0 -0 -0 0 0 0 0 0
0 0 0 -0 -0 -0 -0 -0 -0 -0 -0 -0 -0 -0 -0 -0 -0 -0 -0 -0 0 -0 -0 0 0 -0 -0 0 0 -0 -0 0 -0 0 -0 -0 0 -0 0 0 0 0 -0
Wind_Speed_500mb
61 46 41 37 33 32 37 38 47 57 62 58 48 38 31 24 20 19 25 27 25 27 30 33 34 34 31 29 29 27 29 28 27 23 24 23 25 24 23 22 22 26 23
49 34 31 23 23 23 27 36 44 54 55 46 37 29 25 20 17 17 21 20 21 24 28 31 30 32 29 28 28 30 25 28 31 26 24 19 16 21 24 21 21 22 20
54 35 22 17 19 22 30 38 47 53 50 40 35 28 21 16 12 16 15 16 17 20 19 21 24 24 25 28 29 28 27 26 26 27 17 14 19 27 20 20 20 19 18
38 26 22 19 22 25 33 41 49 54 48 40 28 24 17 13 15 15 16 13 14 14 11 14 16 18 20 21 18 16 16 21 20 22 19 12 8 27 20 23 21 21 21
23 23 23 24 27 32 41 46 51 51 44 37 25 18 14 12 11 10 12 14 13 11 8 9 12 14 14 14 10 9 13 16 16 17 19 17 15 18 16 23 23 22 22
15 22 26 31 35 40 46 49 50 42 37 30 24 19 14 11 10 10 14 14 17 11 10 9 10 11 10 5 7 11 13 12 13 16 15 17 13 20 15 19 25 25 22
25 33 36 39 44 49 50 47 43 37 33 27 22 17 11 9 6 8 11 12 12 12 11 11 8 6 5 7 11 13 13 12 10 11 16 19 10 8 16 18 23 29 30
27 35 38 42 50 51 49 44 40 35 30 26 23 17 10 5 4 5 5 5 9 15 15 11 7 6 6 10 13 15 15 14 12 11 17 17 14 5 11 22 37 39 32
31 39 41 46 49 49 45 41 37 32 28 26 24 18 12 10 6 1 5 7 15 16 15 9 6 5 5 7 10 15 17 16 15 15 15 16 14 12 11 20 29 36 24
37 42 45 48 47 44 41 38 33 29 27 27 22 18 11 7 2 4 9 13 18 18 14 6 5 5 3 2 7 11 14 15 12 13 21 15 12 11 6 14 26 24 45
44 46 48 48 46 43 39 38 32 29 30 26 22 18 13 9 6 6 10 14 17 17 13 8 3 3 1 2 3 7 9 9 12 21 20 17 13 15 10 13 17 38 21
48 52 50 49 46 42 39 37 31 29 29 25 21 16 12 9 8 10 12 14 15 16 12 9 4 3 2 3 2 2 15 18 18 17 11 15 23 17 22 24 35 33 50
51 53 51 49 45 41 40 35 32 30 28 24 19 14 12 8 9 12 12 16 16 15 12 9 8 6 8 10 7 13 14 19 17 23 17 16 31 27 29 31 43 47 63
51 53 50 48 44 41 40 35 33 30 28 23 17 13 9 11 11 16 15 16 16 14 12 14 12 13 11 11 14 19 16 16 17 17 20 20 35 28 36 42 48 66 71
46 50 52 49 45 44 40 35 33 31 28 23 20 14 10 10 16 19 19 18 17 15 14 17 17 15 15 13 13 22 15 18 24 27 25 30 30 31 37 46 51 57 67
43 48 51 50 47 46 42 38 35 32 29 26 22 17 14 18 21 24 24 22 18 17 17 17 17 17 13 16 10 13 17 17 24 31 32 37 34 33 32 43 43 54 68
46 52 54 52 48 47 45 42 38 36 33 29 25 21 19 24 24 25 25 22 20 19 18 16 16 16 16 12 6 7 15 17 22 34 35 39 42 42 40 39 37 48 61
43 52 53 52 48 46 45 42 40 39 36 32 29 25 26 27 26 24 23 21 19 15 13 14 17 17 15 15 6 9 21 26 28 34 38 47 43 42 41 43 54 46 41
37 42 48 53 52 51 48 45 44 42 39 36 34 31 30 28 26 23 22 20 20 15 11 7 13 18 18 15 15 20 29 27 30 36 35 34 41 41 44 47 53 52 44
36 41 49 53 55 54 52 48 48 45 43 40 39 35 31 31 27 23 21 21 20 17 13 14 15 17 22 18 19 25 37 29 41 38 45 49 60 50 42 40 44 47 48
34 43 52 55 55 57 56 51 50 48 44 41 41 39 34 31 26 22 18 19 20 19 19 18 21 21 22 23 21 25 33 40 38 40 51 50 43 38 38 39 32 34 40
36 47 54 55 55 59 59 54 52 49 46 44 43 42 37 31 29 25 21 17 18 19 22 20 22 21 26 29 28 25 27 44 41 39 37 43 37 38 40 39 41 41 43
36 48 54 56 55 58 59 57 52 53 50 47 45 42 40 35 33 30 26 21 19 17 20 22 21 22 20 27 28 36 36 46 35 37 37 40 38 39 38 39 39 39 30
37 48 55 61 61 59 59 55 54 55 53 50 47 44 42 40 37 32 28 24 22 22 22 23 24 24 25 28 34 37 39 36 36 46 43 38 35 37 33 39 38 24 26
32 48 58 61 61 58 58 56 56 58 57 53 49 47 43 45 40 38 32 30 26 23 24 24 24 29 29 30 33 38 38 37 37 46 41 35 31 29 31 28 29 24 30
27 45 52 57 62 60 60 60 59 59 59 57 53 51 47 44 42 42 37 40 34 32 28 30 28 25 26 31 34 35 39 42 41 39 33 31 32 34 35 35 33 30 31
Wind_Direction_500mb
288 279 271 270 248 242 225 208 201 197 195 197 192 197 208 219 229 244 261 272 268 263 261 261 260 251 245 235 238 238 238 237 233 218 209 204 211 212 211 218 218 219 212
280 278 269 253 238 219 201 192 187 193 188 186 181 192 199 217 226 244 256 263 261 261 259 259 254 251 240 233 238 241 237 237 219 203 188 192 202 204 205 206 211 210 209
279 269 244 223 210 195 186 181 180 184 178 176 181 187 195 210 242 257 260 259 251 256 260 261 254 240 222 237 244 245 236 226 211 197 181 173 203 183 200 202 206 207 210
260 244 215 192 180 174 168 168 173 174 178 181 178 181 195 218 234 231 241 247 242 246 248 245 237 228 236 241 241 239 209 207 192 193 205 227 221 188 182 203 201 195 198
244 211 190 176 164 157 157 161 166 171 180 176 172 175 186 223 227 233 234 237 239 223 220 220 224 234 238 237 214 193 190 191 188 193 192 212 200 216 198 183 183 184 182
181 165 159 153 151 148 151 156 163 168 173 175 169 167 187 199 218 242 253 254 248 227 194 200 207 221 228 211 185 192 196 190 189 201 206 202 186 195 196 181 169 159 158
160 153 153 152 149 152 155 157 159 160 166 166 167 171 176 187 220 242 271 249 237 191 185 185 189 200 189 177 184 191 199 208 210 214 195 208 219 204 211 179 160 153 145
149 147 151 150 152 154 157 156 158 160 165 168 169 170 165 185 206 268 237 237 193 151 167 161 144 124 146 167 187 200 201 210 213 215 209 218 220 247 208 179 162 147 131
152 148 149 150 153 155 156 158 158 162 165 169 170 168 159 165 192 302 108 145 154 166 163 160 137 121 144 192 185 192 192 195 199 233 220 216 228 256 193 174 172 172 145
150 148 150 152 155 154 156 157 159 164 168 170 170 172 170 154 103 82 135 147 156 162 164 158 111 105 76 218 181 175 189 201 209 183 210 215 241 202 169 168 174 178 152
152 152 154 155 154 154 158 158 161 166 170 171 172 175 175 158 139 133 141 155 164 170 161 163 113 86 120 172 195 218 212 194 183 178 205 213 208 171 171 154 138 150 159
154 154 157 156 156 158 160 162 165 170 171 169 171 181 179 180 167 148 150 159 168 168 167 158 161 134 158 99 101 207 177 172 176 161 194 193 180 162 150 144 144 141 140
154 155 158 160 159 162 164 166 168 170 169 169 172 179 186 185 160 151 154 166 172 170 162 152 146 152 114 95 92 100 123 153 158 169 150 147 152 147 146 150 146 139 144
158 158 161 163 163 166 167 168 169 170 168 167 171 173 174 168 149 149 147 157 166 164 156 145 145 124 110 108 100 95 93 109 141 160 167 148 155 149 152 143 134 140 143
167 164 165 165 165 168 169 170 171 170 168 166 165 162 156 147 145 142 143 150 153 151 154 148 140 127 115 112 101 93 101 109 125 124 124 136 151 150 144 144 144 153 157
174 172 170 168 170 171 171 172 171 171 166 163 163 152 146 145 144 141 138 138 143 144 151 155 150 137 133 125 87 103 106 110 123 128 125 132 138 137 147 145 149 153 155
179 179 177 171 172 173 172 172 170 168 167 163 163 154 147 147 141 140 138 141 145 145 147 152 150 142 161 149 116 119 123 123 127 130 130 129 127 120 127 144 157 155 166
193 183 180 173 172 173 173 171 171 169 168 166 164 157 150 149 147 145 145 145 149 148 149 153 155 151 157 146 128 150 139 134 132 125 127 133 130 129 134 133 136 140 156
198 196 185 174 170 174 174 172 173 172 172 169 167 161 159 153 147 146 146 153 154 149 140 136 140 141 146 133 126 129 143 133 136 131 120 131 141 130 130 139 135 138 132
192 193 186 179 171 174 175 174 176 176 176 173 172 168 162 159 152 144 139 147 152 152 137 128 129 133 147 141 138 140 143 131 131 131 126 118 120 122 126 130 135 137 143
200 189 185 185 177 174 175 177 179 181 179 176 175 174 172 168 166 155 139 142 143 152 146 142 140 135 138 142 127 136 151 149 130 130 129 123 120 125 136 137 141 150 147
195 190 185 184 182 178 178 179 183 180 179 178 178 179 180 178 183 174 163 149 151 149 148 147 138 141 133 134 136 133 147 153 141 138 140 133 132 136 139 140 143 147 147
197 190 187 184 184 185 182 182 183 180 180 181 182 183 184 181 186 179 176 167 159 158 156 152 152 149 148 147 145 134 132 158 141 152 156 146 144 144 144 145 151 156 157
200 193 189 188 184 188 188 187 182 180 182 183 185 186 186 186 187 188 189 183 178 176 168 165 163 160 155 156 152 154 156 154 153 161 158 159 156 153 160 156 154 145 153
205 198 195 192 188 185 191 188 185 182 184 185 186 187 189 191 192 191 194 192 194 187 183 177 173 173 174 178 170 166 166 163 169 169 170 174 176 178 177 179 180 174 174
215 205 200 194 191 188 188 189 187 187 186 186 189 191 191 194 197 197 200 194 196 197 187 191 182 187 187 197 184 183 182 182 185 181 186 191 194 194 196 196 197 198 197
Wind_Speed_850mb
61 46 41 37 33 32 37 38 47 57 62 58 48 38 31 24 20 19 25 27 25 27 30 33 34 34 31 29 29 27 29 28 27 23 24 23 25 24 23 22 22 26 23
49 34 31 23 23 23 27 36 44 54 55 46 37 29 25 20 17 17 21 20 21 24 28 31 30 32 29 28 28 30 25 28 31 26 24 19 16 21 24 21 21 22 20
54 35 22 17 19 22 30 38 47 53 50 40 35 28 21 16 12 16 15 16 17 20 19 21 24 24 25 28 29 28 27 26 26 27 17 14 19 27 20 20 20 19 18
38 26 22 19 22 25 33 41 49 54 48 40 28 24 17 13 15 15 16 13 14 14 11 14 16 18 20 21 18 16 16 21 20 22 19 12 8 27 20 23 21 21 21
23 23 23 24 27 32 41 46 51 51 44 37 25 18 14 12 11 10 12 14 13 11 8 9 12 14 14 14 10 9 13 16 16 17 19 17 15 18 16 23 23 22 22
15 22 26 31 35 40 46 49 50 42 37 30 24 19 14 11 10 10 14 14 17 11 10 9 10 11 10 5 7 11 13 12 13 16 15 17 13 20 15 19 25 25 22
25 33 36 39 44 49 50 47 43 37 33 27 22 17 11 9 6 8 11 12 12 12 11 11 8 6 5 7 11 13 13 12 10 11 16 19 10 8 16 18 23 29 30
27 35 38 42 50 51 49 44 40 35 30 26 23 17 10 5 4 5 5 5 9 15 15 11 7 6 6 10 13 15 15 14 12 11 17 17 14 5 11 22 37 39 32
31 39 41 46 49 49 45 41 37 32 28 26 24 18 12 10 6 1 5 7 15 16 15 9 6 5 5 7 10 15 17 16 15 15 15 16 14 12 11 20 29 36 24
37 42 45 48 47 44 41 38 33 29 27 27 22 18 11 7 2 4 9 13 18 18 14 6 5 5 3 2 7 11 14 15 12 13 21 15 12 11 6 14 26 24 45
44 46 48 48 46 43 39 38 32 29 30 26 22 18 13 9 6 6 10 14 17 17 13 8 3 3 1 2 3 7 9 9 12 21 20 17 13 15 10 13 17 38 21
48 52 50 49 46 42 39 37 31 29 29 25 21 16 12 9 8 10 12 14 15 16 12 9 4 3 2 3 2 2 15 18 18 17 11 15 23 17 22 24 35 33 50
51 53 51 49 45 41 40 35 32 30 28 24 19 14 12 8 9 12 12 16 16 15 12 9 8 6 8 10 7 13 14 19 17 23 17 16 31 27 29 31 43 47 63
51 53 50 48 44 41 40 35 33 30 28 23 17 13 9 11 11 16 15 16 16 14 12 14 12 13 11 11 14 19 16 16 17 17 20 20 35 28 36 42 48 66 71
46 50 52 49 45 44 40 35 33 31 28 23 20 14 10 10 16 19 19 18 17 15 14 17 17 15 15 13 13 22 15 18 24 27 25 30 30 31 37 46 51 57 67
43 48 51 50 47 46 42 38 35 32 29 26 22 17 14 18 21 24 24 22 18 17 17 17 17 17 13 16 10 13 17 17 24 31 32 37 34 33 32 43 43 54 68
46 52 54 52 48 47 45 42 38 36 33 29 25 21 19 24 24 25 25 22 20 19 18 16 16 16 16 12 6 7 15 17 22 34 35 39 42 42 40 39 37 48 61
43 52 53 52 48 46 45 42 40 39 36 32 29 25 26 27 26 24 23 21 19 15 13 14 17 17 15 15 6 9 21 26 28 34 38 47 43 42 41 43 54 46 41
37 42 48 53 52 51 48 45 44 42 39 36 34 31 30 28 26 23 22 20 20 15 11 7 13 18 18 15 15 20 29 27 30 36 35 34 41 41 44 47 53 52 44
36 41 49 53 55 54 52 48 48 45 43 40 39 35 31 31 27 23 21 21 20 17 13 14 15 17 22 18 19 25 37 29 41 38 45 49 60 50 42 40 44 47 48
34 43 52 55 55 57 56 51 50 48 44 41 41 39 34 31 26 22 18 19 20 19 19 18 21 21 22 23 21 25 33 40 38 40 51 50 43 38 38 39 32 34 40
36 47 54 55 55 59 59 54 52 49 46 44 43 42 37 31 29 25 21 17 18 19 22 20 22 21 26 29 28 25 27 44 41 39 37 43 37 38 40 39 41 41 43
36 48 54 56 55 58 59 57 52 53 50 47 45 42 40 35 33 30 26 21 19 17 20 22 21 22 20 27 28 36 36 46 35 37 37 40 38 39 38 39 39 39 30
37 48 55 61 61 59 59 55 54 55 53 50 47 44 42 40 37 32 28 24 22 22 22 23 24 24 25 28 34 37 39 36 36 46 43 38 35 37 33 39 38 24 26
32 48 58 61 61 58 58 56 56 58 57 53 49 47 43 45 40 38 32 30 26 23 24 24 24 29 29 30 33 38 38 37 37 46 41 35 31 29 31 28 29 24 30
27 45 52 57 62 60 60 60 59 59 59 57 53 51 47 44 42 42 37 40 34 32 28 30 28 25 26 31 34 35 39 42 41 39 33 31 32 34 35 35 33 30 31
Wind_Direction_850mb
288 279 271 270 248 242 225 208 201 197 195 197 192 197 208 219 229 244 261 272 268 263 261 261 260 251 245 235 238 238 238 237 233 218 209 204 211 212 211 218 218 219 212
280 278 269 253 238 219 201 192 187 193 188 186 181 192 199 217 226 244 256 263 261 261 259 259 254 251 240 233 238 241 237 237 219 203 188 192 202 204 205 206 211 210 209
279 269 244 223 210 195 186 181 180 184 178 176 181 187 195 210 242 257 260 259 251 256 260 261 254 240 222 237 244 245 236 226 211 197 181 173 203 183 200 202 206 207 210
260 244 215 192 180 174 168 168 173 174 178 181 178 181 195 218 234 231 241 247 242 246 248 245 237 228 236 241 241 239 209 207 192 193 205 227 221 188 182 203 201 195 198
244 211 190 176 164 157 157 161 166 171 180 176 172 175 186 223 227 233 234 237 239 223 220 220 224 234 238 237 214 193 190 191 188 193 192 212 200 216 198 183 183 184 182
181 165 159 153 151 148 151 156 163 168 173 175 169 167 187 199 218 242 253 254 248 227 194 200 207 221 228 211 185 192 196 190 189 201 206 202 186 195 196 181 169 159 158
160 153 153 152 149 152 155 157 159 160 166 166 167 171 176 187 220 242 271 249 237 191 185 185 189 200 189 177 184 191 199 208 210 214 195 208 219 204 211 179 160 153 145
149 147 151 150 152 154 157 156 158 160 165 168 169 170 165 185 206 268 237 237 193 151 167 161 144 124 146 167 187 200 201 210 213 215 209 218 220 247 208 179 162 147 131
152 148 149 150 153 155 156 158 158 162 165 169 170 168 159 165 192 302 108 145 154 166 163 160 137 121 144 192 185 192 192 195 199 233 220 216 228 256 193 174 172 172 145
150 148 150 152 155 154 156 157 159 164 168 170 170 172 170 154 103 82 135 147 156 162 164 158 111 105 76 218 181 175 189 201 209 183 210 215 241 202 169 168 174 178 152
152 152 154 155 154 154 158 158 161 166 170 171 172 175 175 158 139 133 141 155 164 170 161 163 113 86 120 172 195 218 212 194 183 178 205 213 208 171 171 154 138 150 159
154 154 157 156 156 158 160 162 165 170 171 169 171 181 179 180 167 148 150 159 168 168 167 158 161 134 158 99 101 207 177 172 176 161 194 193 180 162 150 144 144 141 140
154 155 158 160 159 162 164 166 168 170 169 169 172 179 186 185 160 151 154 166 172 170 162 152 146 152 114 95 92 100 123 153 158 169 150 147 152 147 146 150 146 139 144
158 158 161 163 163 166 167 168 169 170 168 167 171 173 174 168 149 149 147 157 166 164 156 145 145 124 110 108 100 95 93 109 141 160 167 148 155 149 152 143 134 140 143
167 164 165 165 165 168 169 170 171 170 168 166 165 162 156 147 145 142 143 150 153 151 154 148 140 127 115 112 101 93 101 109 125 124 124 136 151 150 144 144 144 153 157
174 172 170 168 170 171 171 172 171 171 166 163 163 152 146 145 144 141 138 138 143 144 151 155 150 137 133 125 87 103 106 110 123 128 125 132 138 137 147 145 149 153 155
179 179 177 171 172 173 172 172 170 168 167 163 163 154 147 147 141 140 138 141 145 145 147 152 150 142 161 149 116 119 123 123 127 130 130 129 127 120 127 144 157 155 166
193 183 180 173 172 173 173 171 171 169 168 166 164 157 150 149 147 145 145 145 149 148 149 153 155 151 157 146 128 150 139 134 132 125 127 133 130 129 134 133 136 140 156
198 196 185 174 170 174 174 172 173 172 172 169 167 161 159 153 147 146 146 153 154 149 140 136 140 141 146 133 126 129 143 133 136 131 120 131 141 130 130 139 135 138 132
192 193 186 179 171 174 175 174 176 176 176 173 172 168 162 159 152 144 139 147 152 152 137 128 129 133 147 141 138 140 143 131 131 131 126 118 120 122 126 130 135 137 143
200 189 185 185 177 174 175 177 179 181 179 176 175 174 172 168 166 155 139 142 143 152 146 142 140 135 138 142 127 136 151 149 130 130 129 123 120 125 136 137 141 150 147
195 190 185 184 182 178 178 179 183 180 179 178 178 179 180 178 183 174 163 149 151 149 148 147 138 141 133 134 136 133 147 153 141 138 140 133 132 136 139 140 143 147 147
197 190 187 184 184 185 182 182 183 180 180 181 182 183 184 181 186 179 176 167 159 158 156 152 152 149 148 147 145 134 132 158 141 152 156 146 144 144 144 145 151 156 157
200 193 189 188 184 188 188 187 182 180 182 183 185 186 186 186 187 188 189 183 178 176 168 165 163 160 155 156 152 154 156 154 153 161 158 159 156 153 160 156 154 145 153
205 198 195 192 188 185 191 188 185 182 184 185 186 187 189 191 192 191 194 192 194 187 183 177 173 173 174 178 170 166 166 163 169 169 170 174 176 178 177 179 180 174 174
215 205 200 194 191 188 188 189 187 187 186 186 189 191 191 194 197 197 200 194 196 197 187 191 182 187 187 197 184 183 182 182 185 181 186 191 194 194 196 196 197 198 197